CW8226 Weather Reports


time (UTC)temp
F
wind
direction
speed
knots
gust
knots
rain 1hr
in
rain 24hr
in
rain mn
in
humidity
%
barometer
mb
20260506021206 61 204 0.0 0.9 0.00 0.00 0.00 75 1017.7
20260506020703 61 207 0.0 2.6 0.00 0.00 0.00 75 1017.4
20260506020201 62 203 0.0 0.9 0.00 0.00 0.00 75 1017.4
20260506015658 62 184 0.0 1.7 0.00 0.00 0.00 75 1017.7
20260506015155 62 207 0.0 0.9 0.00 0.00 0.00 75 1017.7
20260506014647 61 191 0.0 0.9 0.00 0.00 0.00 75 1017.5
20260506014142 62 195 0.0 0.9 0.00 0.00 0.00 75 1017.5
20260506013641 62 211 0.0 0.9 0.00 0.00 0.00 75 1017.8
20260506013137 61 198 0.0 0.9 0.00 0.00 0.00 75 1017.7
20260506012633 61 209 0.9 0.9 0.00 0.00 0.00 75 1017.5
20260506012129 62 222 0.0 2.6 0.00 0.00 0.00 75 1017.6
20260506011627 62 206 0.0 0.9 0.00 0.00 0.00 75 1017.5
20260506011123 62 207 0.0 1.7 0.00 0.00 0.00 74 1017.5
20260506010622 62 202 0.0 0.9 0.00 0.00 0.00 75 1017.6
20260506010119 62 195 0.9 1.7 0.00 0.00 0.00 75 1017.6
20260506005616 62 199 1.7 2.6 0.00 0.00 0.00 74 1017.6
20260506005112 62 197 0.9 1.7 0.00 0.00 0.00 74 1017.6
20260506004609 62 200 1.7 4.3 0.00 0.00 0.00 74 1017.3
20260506004106 62 216 0.9 2.6 0.00 0.00 0.00 73 1017.3
20260506003602 62 203 0.0 0.9 0.00 0.00 0.00 74 1017.5
20260506003058 62 208 0.0 1.7 0.00 0.00 0.00 73 1017.5
20260506002554 62 238 1.7 4.3 0.00 0.00 0.00 74 1017.4
20260506002050 62 205 0.9 2.6 0.00 0.00 0.00 74 1017.2
20260506001546 62 210 0.0 5.2 0.00 0.00 0.00 74 1017.2
20260506001044 62 208 0.9 4.3 0.00 0.00 0.00 73 1017.2
20260506000542 62 254 0.9 4.3 0.00 0.00 0.00 74 1017.1
20260506000039 62 208 0.9 2.6 0.00 0.00 0.00 73 1017.0
20260505235537 62 194 0.9 1.7 0.00 0.00 0.00 73 1017.3
20260505235033 62 236 1.7 2.6 0.00 0.00 0.00 73 1017.1
20260505234530 62 203 0.0 0.9 0.00 0.00 0.00 73 1017.3
20260505234027 62 262 0.9 6.1 0.00 0.00 0.00 73 1017.0
20260505233525 63 201 0.9 6.1 0.00 0.00 0.00 72 1017.1
20260505233022 63 246 0.9 5.2 0.00 0.00 0.00 72 1017.2
20260505232519 63 208 0.9 1.7 0.00 0.00 0.00 73 1017.2
20260505232017 64 235 2.6 4.3 0.00 0.00 0.00 72 1017.3
20260505231514 64 233 0.9 1.7 0.00 0.00 0.00 71 1017.2
20260505231013 64 101 0.0 1.7 0.00 0.00 0.00 71 1017.2
20260505230509 64 217 1.7 4.3 0.00 0.00 0.00 71 1016.9
20260505230006 65 265 0.9 2.6 0.00 0.00 0.00 69 1017.4
20260505225502 66 222 0.0 0.9 0.00 0.00 0.00 68 1017.1
20260505224958 65 185 0.9 1.7 0.00 0.00 0.00 67 1017.2
20260505224455 65 209 0.9 2.6 0.00 0.00 0.00 69 1017.2
20260505223953 65 279 2.6 2.6 0.00 0.00 0.00 68 1017.2
20260505223450 65 250 1.7 4.3 0.00 0.00 0.00 67 1017.2
20260505222946 65 315 1.7 2.6 0.00 0.00 0.00 68 1017.1
20260505222442 64 280 2.6 2.6 0.00 0.00 0.00 68 1017.1
20260505221938 65 210 1.7 4.3 0.00 0.00 0.00 67 1017.5
20260505221436 65 221 0.0 1.7 0.00 0.00 0.00 68 1017.5
20260505220933 64 248 0.9 1.7 0.00 0.00 0.00 70 1017.5
20260505220430 64 268 4.3 5.2 0.00 0.00 0.00 69 1017.4
20260505215927 64 207 0.9 1.7 0.00 0.00 0.00 69 1017.4
20260505215425 63 206 0.9 5.2 0.00 0.00 0.00 71 1017.4
20260505214923 63 229 1.7 2.6 0.00 0.00 0.00 70 1017.6
20260505214420 64 167 1.7 1.7 0.00 0.00 0.00 69 1017.5
20260505213917 64 197 0.9 2.6 0.00 0.00 0.00 70 1017.6
20260505213415 64 209 0.9 0.9 0.00 0.00 0.00 70 1017.6
20260505212911 64 202 0.9 0.9 0.00 0.00 0.00 71 1017.7
20260505212408 64 219 0.9 1.7 0.00 0.00 0.00 70 1017.7
20260505211904 64 255 1.7 2.6 0.00 0.00 0.00 70 1017.8
20260505211402 64 226 0.9 0.9 0.00 0.00 0.00 70 1017.9
20260505210858 64 150 0.9 4.3 0.00 0.00 0.00 70 1017.6
20260505210355 64 141 0.9 0.9 0.00 0.00 0.00 70 1017.6
20260505205852 64 235 1.7 2.6 0.00 0.00 0.00 70 1017.7
20260505205350 64 193 0.0 1.7 0.00 0.00 0.00 69 1017.6
20260505204847 64 205 0.0 1.7 0.00 0.00 0.00 70 1017.5
20260505204345 64 231 0.0 0.9 0.00 0.00 0.00 70 1017.6
20260505203842 64 230 0.0 1.7 0.00 0.00 0.00 70 1017.7
20260505203338 63 197 0.9 0.9 0.00 0.00 0.00 71 1017.7
20260505202835 63 233 0.9 1.7 0.00 0.00 0.00 71 1017.7
20260505202331 64 309 3.5 4.3 0.00 0.00 0.00 69 1017.6
20260505201828 64 206 0.0 0.9 0.00 0.00 0.00 70 1017.9
20260505201325 63 199 0.0 0.9 0.00 0.00 0.00 71 1017.9
20260505200823 62 252 0.9 0.9 0.00 0.00 0.00 71 1018.0
20260505200320 63 310 0.9 2.6 0.00 0.00 0.00 71 1017.9
20260505195815 62 184 0.0 1.7 0.00 0.00 0.00 72 1017.9
20260505195313 64 288 0.9 1.7 0.00 0.00 0.00 70 1018.0
20260505194810 64 216 0.9 0.9 0.00 0.00 0.00 71 1017.9
20260505194307 62 159 0.0 0.9 0.00 0.00 0.00 73 1017.8
20260505193802 62 263 2.6 2.6 0.00 0.00 0.00 73 1017.9
20260505193300 62 208 0.9 1.7 0.00 0.00 0.00 73 1018.0
20260505192758 62 296 2.6 5.2 0.00 0.00 0.00 73 1018.0
20260505192256 63 231 0.9 0.9 0.00 0.00 0.00 74 1018.0
20260505191753 61 205 0.0 2.6 0.00 0.00 0.00 76 1018.2
20260505191252 61 290 0.9 5.2 0.00 0.00 0.00 77 1018.3
20260505190748 61 212 1.7 5.2 0.00 0.00 0.00 78 1018.0
20260505190243 61 259 1.7 2.6 0.00 0.00 0.00 77 1018.1
20260505185740 60 225 1.7 1.7 0.00 0.00 0.00 79 1018.0
20260505185236 60 210 0.9 1.7 0.00 0.00 0.00 80 1018.0
20260505184732 61 248 2.6 2.6 0.00 0.00 0.00 78 1017.8
20260505184230 60 216 0.9 2.6 0.00 0.00 0.00 81 1017.9
20260505183726 60 222 0.9 4.3 0.00 0.00 0.00 81 1017.8
20260505183224 60 235 0.9 2.6 0.00 0.00 0.00 81 1018.1
20260505182720 60 225 0.9 4.3 0.00 0.00 0.00 81 1018.1
20260505182218 60 218 0.9 1.7 0.00 0.00 0.00 82 1018.2
20260505181713 59 151 1.7 2.6 0.00 0.00 0.00 83 1018.1
20260505181211 59 258 0.9 1.7 0.00 0.00 0.00 84 1017.9
20260505180707 59 213 0.0 1.7 0.00 0.00 0.00 83 1017.9
20260505180204 58 266 0.9 2.6 0.00 0.00 0.00 84 1017.9
20260505175700 58 209 0.9 1.7 0.00 0.00 0.00 85 1017.9
20260505175156 58 206 0.9 0.9 0.00 0.00 0.00 85 1017.8
20260505174653 58 209 0.9 2.6 0.00 0.00 0.00 86 1017.8
20260505174149 58 255 1.7 5.2 0.00 0.00 0.00 87 1017.6
20260505173646 57 286 2.6 5.2 0.00 0.00 0.00 88 1017.8
20260505173143 57 252 1.7 2.6 0.00 0.00 0.00 89 1017.5
20260505172641 56 290 1.7 2.6 0.00 0.00 0.00 91 1017.4
20260505172138 56 231 0.0 1.7 0.00 0.00 0.00 92 1017.7
20260505171637 56 219 0.0 0.9 0.00 0.00 0.00 93 1017.6
20260505171135 56 203 0.0 0.9 0.00 0.00 0.00 93 1017.6
20260505170632 55 221 0.0 1.7 0.00 0.00 0.00 94 1017.4
20260505170129 56 226 0.9 0.9 0.00 0.00 0.00 95 1017.6
20260505165624 55 212 0.0 0.0 0.00 0.00 0.00 95 1017.6
20260505165120 55 212 0.0 0.0 0.00 0.00 0.00 96 1017.6
20260505164615 55 215 0.9 0.9 0.00 0.00 0.00 96 1017.4
20260505164113 55 203 0.0 0.0 0.00 0.00 0.00 97 1017.4
20260505163612 54 202 0.0 0.9 0.00 0.00 0.00 97 1017.3
20260505163109 54 222 0.0 0.9 0.00 0.00 0.00 98 1017.3
20260505162606 55 204 0.0 0.0 0.00 0.00 0.00 99 1017.5
20260505162104 54 207 0.0 0.9 0.00 0.00 0.00 99 1017.5
20260505161601 54 198 0.0 0.0 0.00 0.00 0.00 99 1017.4
20260505161058 54 209 0.0 0.0 0.00 0.00 0.00 99 1017.3
20260505160555 54 208 0.0 0.9 0.00 0.00 0.00 99 1017.4
20260505153032 54 195 0.0 0.0 0.00 0.00 0.00 99 1017.3
20260505152529 53 195 0.0 0.0 0.00 0.00 0.00 99 1017.3
20260505152025 53 192 0.0 0.0 0.00 0.00 0.00 99 1017.3
20260505151520 54 198 0.0 0.0 0.00 0.00 0.00 99 1017.0
20260505151018 53 198 0.0 0.0 0.00 0.00 0.00 99 1017.0
20260505150514 53 199 0.0 0.0 0.00 0.00 0.00 99 1017.1
20260505140439 52 195 0.0 0.0 0.00 0.00 0.00 99 1016.7
20260505124852 52 202 0.0 0.9 0.00 0.00 0.00 98 1016.5
20260505124349 52 199 0.0 0.0 0.00 0.00 0.00 97 1016.6
20260505123845 52 197 0.0 0.0 0.00 0.00 0.00 97 1016.7
20260505123342 52 193 0.0 0.0 0.00 0.00 0.00 97 1016.8
20260505122838 52 190 0.0 0.0 0.00 0.00 0.00 97 1016.7
20260505122336 52 192 0.0 0.0 0.00 0.00 0.00 97 1016.7
20260505121832 52 191 0.0 0.0 0.00 0.00 0.00 97 1016.6
20260505121329 52 188 0.0 0.0 0.00 0.00 0.00 97 1016.3
20260505120825 52 196 0.0 0.0 0.00 0.00 0.00 97 1016.3
20260505120321 52 196 0.0 0.0 0.00 0.00 0.00 96 1016.4
20260505115820 52 196 0.0 0.0 0.00 0.00 0.00 96 1016.5
20260505115317 52 192 0.0 0.0 0.00 0.00 0.00 96 1016.8
20260505114815 52 192 0.0 0.0 0.00 0.00 0.00 96 1016.8
20260505114306 52 198 0.0 0.0 0.00 0.00 0.00 95 1016.5
20260505113802 52 199 0.0 0.0 0.00 0.00 0.00 95 1016.4
20260505113259 52 199 0.0 0.0 0.00 0.00 0.00 95 1016.6
20260505112754 52 198 0.0 0.0 0.00 0.00 0.00 94 1016.5
20260505112253 52 198 0.0 0.0 0.00 0.00 0.00 94 1016.7
20260505111752 52 198 0.0 0.0 0.00 0.00 0.00 93 1016.4
20260505111248 52 198 0.0 0.0 0.00 0.00 0.00 93 1016.7
20260505110745 52 200 0.0 0.0 0.00 0.00 0.00 93 1016.3
20260505110243 52 208 0.0 0.0 0.00 0.00 0.00 92 1016.8
20260505102218 53 195 0.0 0.0 0.00 0.00 0.00 89 1016.4
20260505101716 53 194 0.0 0.0 0.00 0.00 0.00 88 1016.7
20260505101212 53 195 0.0 0.0 0.00 0.00 0.00 88 1016.5
20260505100709 53 194 0.0 0.0 0.00 0.00 0.00 88 1016.3
20260505100206 53 196 0.0 0.0 0.00 0.00 0.00 87 1016.6
20260505095701 53 196 0.0 0.0 0.00 0.00 0.00 87 1016.7
20260505095159 53 195 0.0 0.0 0.00 0.00 0.00 87 1016.9
20260505094655 53 201 0.0 0.0 0.00 0.00 0.00 87 1016.9
20260505094151 53 206 0.0 0.0 0.00 0.00 0.00 86 1016.6
20260505093648 53 201 0.0 0.0 0.00 0.00 0.00 86 1016.7
20260505093145 53 196 0.0 0.0 0.00 0.00 0.00 85 1016.9
20260505092642 53 200 0.0 0.0 0.00 0.00 0.00 85 1016.8
20260505092141 53 203 0.0 0.0 0.00 0.00 0.00 85 1016.8
20260505091637 53 206 0.0 0.0 0.00 0.00 0.00 85 1016.8
20260505091135 53 202 0.0 0.0 0.00 0.00 0.00 84 1016.9
20260505090633 53 202 0.0 0.0 0.00 0.00 0.00 84 1017.0
20260505090131 53 204 0.0 0.9 0.00 0.00 0.00 84 1016.9
20260505085628 53 201 0.0 0.0 0.00 0.00 0.00 84 1017.1
20260505085126 53 201 0.0 0.0 0.00 0.00 0.00 84 1017.1
20260505084624 53 205 0.0 0.0 0.00 0.00 0.00 83 1017.4
20260505084122 53 198 0.0 0.0 0.00 0.00 0.00 83 1017.0
20260505083619 53 191 0.0 0.0 0.00 0.00 0.00 83 1017.0
20260505083115 53 198 0.0 0.0 0.00 0.00 0.00 83 1017.4
20260505082611 53 219 0.9 1.7 0.00 0.00 0.00 82 1017.4
20260505082108 54 203 0.0 0.0 0.00 0.00 0.00 82 1017.5
20260505081604 54 249 0.9 0.9 0.00 0.00 0.00 82 1017.4
20260505081102 54 205 0.0 0.0 0.00 0.00 0.00 81 1017.3
20260505080558 54 207 0.0 1.7 0.00 0.00 0.00 81 1017.2
20260505080055 54 245 0.9 1.7 0.00 0.00 0.00 80 1017.7
20260505075550 54 199 0.0 0.0 0.00 0.00 0.00 78 1017.5
20260505075047 54 194 0.0 1.7 0.00 0.00 0.00 78 1017.7
20260505074544 54 243 0.9 1.7 0.00 0.00 0.00 77 1017.6
20260505074042 54 220 0.9 1.7 0.00 0.00 0.00 77 1017.7
20260505073539 54 227 0.9 1.7 0.00 0.00 0.00 78 1017.5
20260505073038 54 211 0.0 0.9 0.00 0.00 0.00 78 1017.5
20260505072532 54 213 1.7 2.6 0.00 0.00 0.00 78 1017.3
20260505072029 55 253 0.9 1.7 0.00 0.00 0.00 78 1017.6
20260505071525 55 211 0.9 1.7 0.00 0.00 0.00 78 1017.5
20260505071023 55 200 0.9 1.7 0.00 0.00 0.00 78 1017.6
20260505070520 55 184 0.9 2.6 0.00 0.00 0.00 78 1017.2
20260505070016 55 220 0.9 4.3 0.00 0.00 0.00 78 1017.2
20260505065512 55 299 1.7 2.6 0.00 0.00 0.00 78 1017.2
20260505065009 55 303 1.7 2.6 0.00 0.00 0.00 78 1017.2
20260505064506 55 339 1.7 2.6 0.00 0.00 0.00 79 1017.2
20260505064004 55 223 0.9 1.7 0.00 0.00 0.00 80 1017.3
20260505063501 54 201 0.0 0.0 0.00 0.00 0.00 80 1017.2
20260505062957 54 228 0.9 0.9 0.00 0.00 0.00 81 1017.1
20260505062454 55 213 0.9 1.7 0.00 0.00 0.00 82 1017.0
20260505061951 55 215 0.9 0.9 0.00 0.00 0.00 82 1017.1
20260505061449 55 231 0.9 1.7 0.00 0.00 0.00 82 1016.9
20260505060946 55 211 0.0 0.9 0.00 0.00 0.00 82 1016.9
20260505060443 55 239 0.0 0.9 0.00 0.00 0.00 82 1016.8
20260505055940 55 204 0.0 1.7 0.00 0.00 0.00 81 1016.9
20260505055435 55 282 1.7 4.3 0.00 0.00 0.00 82 1017.0
20260505054932 55 230 0.9 2.6 0.00 0.00 0.00 83 1017.1
20260505054430 55 206 1.7 1.7 0.00 0.00 0.00 83 1016.9
20260505053928 55 210 0.9 0.9 0.00 0.00 0.00 82 1017.0
20260505053424 55 243 1.7 1.7 0.00 0.00 0.00 82 1017.2
20260505052921 55 188 0.9 0.9 0.00 0.00 0.00 82 1017.2
20260505052418 55 350 0.9 2.6 0.00 0.00 0.00 82 1017.2
20260505051916 56 295 3.5 4.3 0.00 0.00 0.00 82 1017.2
20260505051413 56 199 0.0 1.7 0.00 0.00 0.00 83 1017.4
20260505050911 56 265 0.9 1.7 0.00 0.00 0.00 84 1017.4
20260505050409 56 336 1.7 1.7 0.00 0.00 0.00 84 1017.3
20260505041336 56 198 0.9 1.7 0.00 0.00 0.00 83 1016.9
20260505040833 56 196 0.0 2.6 0.00 0.00 0.00 82 1016.8
20260505040331 56 200 0.9 1.7 0.00 0.00 0.00 83 1016.9
20260505035827 56 204 0.0 1.7 0.00 0.00 0.00 83 1016.8
20260505035322 56 203 0.0 1.7 0.00 0.00 0.00 82 1016.9
20260505034821 56 213 0.9 1.7 0.00 0.00 0.00 82 1016.7
20260505034317 56 203 0.9 1.7 0.00 0.00 0.00 82 1016.9
20260505033814 57 215 0.9 0.9 0.00 0.00 0.00 81 1016.6
20260505033311 57 189 0.9 2.6 0.00 0.00 0.00 81 1016.5
20260505032810 57 269 1.7 2.6 0.00 0.00 0.00 81 1016.3
20260505032305 57 211 0.9 2.6 0.00 0.00 0.00 80 1016.3
20260505031803 57 258 1.7 2.6 0.00 0.00 0.00 80 1016.4
20260505031259 57 225 0.9 2.6 0.00 0.00 0.00 80 1016.2
20260505030756 57 199 0.0 0.9 0.00 0.00 0.00 79 1016.3
20260505030252 57 205 0.0 1.7 0.00 0.00 0.00 79 1016.0
20260505025748 57 291 1.7 2.6 0.00 0.00 0.00 78 1016.1
20260505025246 57 208 0.0 1.7 0.00 0.00 0.00 78 1016.2
20260505024744 58 171 0.0 1.7 0.00 0.00 0.00 77 1016.3
20260505024241 58 217 0.9 5.2 0.00 0.00 0.00 76 1016.2
20260505023738 58 250 0.9 1.7 0.00 0.00 0.00 75 1016.5
20260505023235 58 203 0.0 2.6 0.00 0.00 0.00 75 1016.3
20260505022733 59 251 1.7 2.6 0.00 0.00 0.00 74 1016.2
20260505022230 59 225 0.9 2.6 0.00 0.00 0.00 73 1016.1
20260505021726 59 204 0.0 1.7 0.00 0.00 0.00 72 1016.3